Fairbanks, AK

10:53 AM AKDT on March 27, 2017 (GMT -0800)
Fairbanks International

Weather History for PAFA - April, 2014

Change the Weather History Date:

Sunday, April 27, 2014

  Actual Average Record
Temperature  
Mean Temperature 47 °F 41 °F  
Max Temperature 61 °F 52 °F 70 °F (2005)
Min Temperature 32 °F 29 °F 7 °F (1909)
Degree Days  
Heating Degree Days 18 24  
Month to date heating degree days 870 904  
Since 1 July heating degree days 11838 12954  
Cooling Degree Days 0 0  
Month to date cooling degree days 0 0  
Year to date cooling degree days 0 0  
Moisture  
Dew Point 24 °F    
Average Humidity 41    
Maximum Humidity 72    
Minimum Humidity 11    
Precipitation  
Precipitation 0.00 in 0.01 in 0.30 in (2002)
Month to date precipitation 0.20 0.26  
Year to date precipitation 1.03 1.51  
Snow  
Snow 0.00 in 0.10 in 2.00 in (1915)
Month to date snowfall 2.9 2.7  
Since 1 July snowfall 48.9 63.9  
Snow Depth 0.00 in    
Sea Level Pressure  
Sea Level Pressure 29.45 in    
Wind  
Wind Speed 6 mph (NE)    
Max Wind Speed 20 mph    
Max Gust Speed -    
Visibility 10 miles    
Events      
T = Trace of Precipitation, MM = Missing Value Source: NWS Daily Summary

Daily Weather History Graph

Daily Weather History Graph

Search for Another Location

Airport or City:

Trip Planner

Search our weather history database for the weather conditions in past years. The results will help you decide how hot, cold, wet, or windy it might be!

Date:

Astronomy

Apr. 27, 2014 Rise Set
Actual Time 5:32 AM AKDT 10:08 PM AKDT
Civil Twilight 4:24 AM AKDT 11:17 PM AKDT
Nautical Twilight 2:21 AM AKDT 1:16 AM AKDT
Astronomical Twilight Sun does not rise Sun does not rise
Moon 5:23 AM AKDT 8:21 PM AKDT
Length of Visible Light 18h 53m
Length of Day
16h 35m
Waning Crescent, 2% of the Moon is Illuminated
Apr 27
Waning Crescent
Apr 28
New
May 6
First Quarter
May 14
Full
May 21
Last Quarter

Hourly Weather History & Observations

Time (AKDT) Temp. Windchill Dew Point Humidity Pressure Visibility Wind Dir Wind Speed Gust Speed Precip Events Conditions
12:53 AM 45.0 °F 40.6 °F 24.1 °F 44% 29.42 in 10.0 mi North 8.1 mph - N/A   Mostly Cloudy
1:53 AM 43.0 °F 41.3 °F 24.1 °F 47% 29.43 in 10.0 mi North 3.5 mph - N/A   Scattered Clouds
2:53 AM 41.0 °F - 23.0 °F 49% 29.43 in 10.0 mi Calm Calm - N/A   Partly Cloudy
3:53 AM 34.0 °F - 25.0 °F 70% 29.43 in 10.0 mi Calm Calm - N/A   Partly Cloudy
4:53 AM 33.1 °F 30.0 °F 25.0 °F 72% 29.44 in 10.0 mi East 3.5 mph - N/A   Partly Cloudy
5:53 AM 37.0 °F 30.4 °F 24.1 °F 59% 29.44 in 10.0 mi NE 9.2 mph - N/A   Partly Cloudy
6:53 AM 34.0 °F 28.8 °F 25.0 °F 70% 29.45 in 10.0 mi NNE 5.8 mph - N/A   Partly Cloudy
7:53 AM 39.9 °F 37.8 °F 25.0 °F 55% 29.46 in 10.0 mi East 3.5 mph - N/A   Scattered Clouds
8:53 AM 43.0 °F 40.3 °F 26.1 °F 51% 29.46 in 10.0 mi NNE 4.6 mph - N/A   Scattered Clouds
9:53 AM 46.9 °F - 25.0 °F 42% 29.45 in 10.0 mi NNE 4.6 mph - N/A   Scattered Clouds
10:53 AM 51.1 °F - 24.1 °F 35% 29.45 in 10.0 mi NNE 4.6 mph - N/A   Scattered Clouds
11:53 AM 54.0 °F - 24.1 °F 31% 29.45 in 10.0 mi East 6.9 mph - N/A   Scattered Clouds
12:53 PM 55.9 °F - 23.0 °F 28% 29.44 in 10.0 mi East 8.1 mph - N/A   Scattered Clouds
1:53 PM 57.9 °F - 24.1 °F 27% 29.44 in 10.0 mi NNE 6.9 mph - N/A   Scattered Clouds
2:53 PM 59.0 °F - 19.9 °F 22% 29.43 in 10.0 mi Variable 6.9 mph - N/A   Scattered Clouds
3:53 PM 60.1 °F - 19.0 °F 20% 29.43 in 10.0 mi Variable 3.5 mph - N/A   Mostly Cloudy
4:53 PM 57.9 °F - 21.0 °F 24% 29.43 in 10.0 mi NNE 9.2 mph - N/A   Mostly Cloudy
5:53 PM 55.9 °F - 25.0 °F 30% 29.44 in 10.0 mi NNE 15.0 mph - N/A   Mostly Cloudy
6:53 PM 55.9 °F - 25.0 °F 30% 29.46 in 10.0 mi NE 19.6 mph - N/A   Scattered Clouds
7:53 PM 53.1 °F - 27.0 °F 37% 29.47 in 10.0 mi NNE 13.8 mph - N/A   Scattered Clouds
8:53 PM 51.1 °F - 27.0 °F 39% 29.49 in 10.0 mi NNE 13.8 mph - N/A   Partly Cloudy
9:53 PM 48.2 °F - 26.6 °F 43% 29.49 in 10.0 mi North 13.8 mph - N/A   Partly Cloudy
10:53 PM 45.0 °F 39.3 °F 27.0 °F 49% 29.52 in 10.0 mi North 11.5 mph - N/A   Partly Cloudy
11:53 PM 44.6 °F 38.4 °F 26.6 °F 49% 29.52 in 10.0 mi North 12.7 mph - N/A   Partly Cloudy